�������l�o���
Date,Time,MP-1(��Sv/h),MP-2(��Sv/h),MP-3(��Sv/h),MP-4(��Sv/h),MP-5(��Sv/h),MP-6(��Sv/h),MP-7(��Sv/h),MP-8(��Sv/h),����,����(m/s),���J
2021/11/07,00:00,0.594,0.895,0.566,1.094,0.770,0.358,0.625,0.587,���k��,2.2,��
2021/11/07,00:10,0.593,0.894,0.565,1.095,0.771,0.357,0.624,0.586,�k��,2.0,��
2021/11/07,00:20,0.593,0.895,0.565,1.096,0.769,0.358,0.624,0.587,�k��,2.2,��
2021/11/07,00:30,0.592,0.893,0.565,1.094,0.769,0.358,0.624,0.586,�k��,2.6,��
2021/11/07,00:40,0.592,0.896,0.564,1.095,0.769,0.359,0.623,0.587,�k��,3.1,��
2021/11/07,00:50,0.594,0.893,0.567,1.095,0.770,0.358,0.623,0.586,�k��,2.9,��
2021/11/07,01:00,0.593,0.892,0.565,1.094,0.772,0.357,0.624,0.585,�k��,2.6,��
2021/11/07,01:10,0.592,0.894,0.563,1.095,0.770,0.357,0.625,0.586,�k��,2.6,��
2021/11/07,01:20,0.594,0.893,0.563,1.094,0.768,0.358,0.625,0.586,�k�k��,2.6,��
2021/11/07,01:30,0.593,0.895,0.565,1.093,0.769,0.358,0.623,0.587,�k�k��,3.3,��
2021/11/07,01:40,0.592,0.896,0.564,1.094,0.771,0.360,0.624,0.585,�k�k��,3.3,��
2021/11/07,01:50,0.592,0.894,0.565,1.096,0.771,0.357,0.624,0.587,�k��,2.6,��
2021/11/07,02:00,0.595,0.894,0.564,1.094,0.771,0.358,0.626,0.586,�k�k��,2.6,��
2021/11/07,02:10,0.594,0.893,0.564,1.093,0.771,0.358,0.624,0.587,�k�k��,2.8,��
2021/11/07,02:20,0.592,0.892,0.565,1.094,0.770,0.358,0.626,0.586,�k��,3.0,��
2021/11/07,02:30,0.593,0.893,0.565,1.095,0.771,0.357,0.625,0.586,�k��,3.7,��
2021/11/07,02:40,0.592,0.892,0.564,1.095,0.768,0.357,0.624,0.586,���k��,3.0,��
2021/11/07,02:50,0.592,0.893,0.563,1.095,0.769,0.358,0.624,0.587,�k��,3.6,��
2021/11/07,03:00,0.592,0.890,0.564,1.095,0.769,0.358,0.625,0.586,�k��,3.1,��
2021/11/07,03:10,0.592,0.892,0.563,1.096,0.769,0.359,0.626,0.588,�k��,2.9,��
2021/11/07,03:20,0.591,0.892,0.565,1.094,0.768,0.358,0.624,0.585,�k��,2.9,��
2021/11/07,03:30,0.592,0.893,0.564,1.096,0.767,0.358,0.627,0.584,�k��,2.3,��
2021/11/07,03:40,0.591,0.894,0.564,1.095,0.769,0.358,0.623,0.585,�k��,2.6,��
2021/11/07,03:50,0.592,0.892,0.564,1.095,0.769,0.358,0.625,0.586,�k��,2.8,��
2021/11/07,04:00,0.593,0.893,0.564,1.096,0.770,0.357,0.625,0.585,�k��,2.3,��
2021/11/07,04:10,0.592,0.893,0.564,1.097,0.769,0.356,0.626,0.587,�k��,2.8,��
2021/11/07,04:20,0.591,0.890,0.564,1.095,0.769,0.357,0.625,0.587,�k��,3.6,��
2021/11/07,04:30,0.593,0.892,0.565,1.094,0.769,0.357,0.625,0.585,�k��,4.0,��
2021/11/07,04:40,0.591,0.892,0.563,1.094,0.769,0.358,0.626,0.586,�k��,3.8,��
2021/11/07,04:50,0.593,0.891,0.564,1.095,0.767,0.359,0.624,0.586,�k��,3.1,��
2021/11/07,05:00,0.593,0.891,0.564,1.095,0.769,0.358,0.624,0.585,�k��,3.2,��
2021/11/07,05:10,0.593,0.895,0.562,1.093,0.769,0.357,0.624,0.587,�k�k��,3.1,��
2021/11/07,05:20,0.593,0.892,0.565,1.096,0.769,0.359,0.624,0.586,�k�k��,3.0,��
2021/11/07,05:30,0.593,0.891,0.563,1.096,0.768,0.358,0.624,0.585,�k�k��,3.6,��
2021/11/07,05:40,0.592,0.892,0.563,1.095,0.769,0.359,0.625,0.585,�k�k��,3.4,��
2021/11/07,05:50,0.591,0.892,0.564,1.096,0.768,0.358,0.624,0.587,�k�k��,4.3,��
2021/11/07,06:00,0.592,0.892,0.563,1.095,0.770,0.358,0.624,0.585,�k�k��,4.4,��
2021/11/07,06:10,0.592,0.892,0.566,1.096,0.768,0.358,0.625,0.586,�k�k��,4.2,��
2021/11/07,06:20,0.592,0.892,0.563,1.096,0.768,0.358,0.624,0.587,�k�k��,3.8,��
2021/11/07,06:30,0.593,0.891,0.563,1.095,0.767,0.358,0.624,0.585,�k�k��,3.9,��
2021/11/07,06:40,0.590,0.894,0.563,1.095,0.769,0.358,0.624,0.586,�k�k��,4.0,��
2021/11/07,06:50,0.591,0.894,0.564,1.096,0.768,0.357,0.624,0.586,�k�k��,4.2,��
2021/11/07,07:00,0.594,0.892,0.565,1.096,0.769,0.359,0.625,0.585,�k�k��,4.1,��
2021/11/07,07:10,0.592,0.893,0.564,1.094,0.768,0.357,0.624,0.587,�k��,4.1,��
2021/11/07,07:20,0.592,0.892,0.563,1.094,0.769,0.359,0.624,0.585,�k��,3.9,��
2021/11/07,07:30,0.591,0.893,0.564,1.094,0.769,0.358,0.625,0.587,�k��,3.8,��
2021/11/07,07:40,0.592,0.893,0.563,1.095,0.768,0.357,0.625,0.585,�k�k��,3.3,��
2021/11/07,07:50,0.591,0.895,0.563,1.097,0.770,0.360,0.625,0.588,�k�k��,4.0,��
2021/11/07,08:00,0.593,0.896,0.563,1.095,0.768,0.358,0.624,0.586,�k��,4.0,��
2021/11/07,08:10,0.593,0.894,0.564,1.094,0.768,0.358,0.625,0.585,�k�k��,3.9,��
2021/11/07,08:20,0.593,0.896,0.564,1.094,0.768,0.359,0.627,0.585,�k�k��,4.0,��
2021/11/07,08:30,0.594,0.893,0.565,1.097,0.769,0.358,0.626,0.586,�k�k��,4.8,��
2021/11/07,08:40,0.592,0.894,0.566,1.096,0.770,0.360,0.624,0.586,�k�k��,4.0,��
2021/11/07,08:50,0.595,0.892,0.564,1.096,0.771,0.359,0.623,0.586,�k�k��,3.2,��
2021/11/07,09:00,0.594,0.894,0.565,1.097,0.771,0.357,0.622,0.586,�k,3.2,��
2021/11/07,09:10,0.595,0.892,0.565,1.095,0.771,0.359,0.625,0.585,�k�k��,3.9,��
2021/11/07,09:20,0.592,0.892,0.565,1.095,0.771,0.359,0.623,0.588,�k�k��,3.1,��
2021/11/07,09:30,0.593,0.892,0.565,1.096,0.769,0.359,0.623,0.588,�k,3.1,��
2021/11/07,09:40,0.595,0.894,0.565,1.097,0.771,0.359,0.623,0.588,�k�k��,3.3,��
2021/11/07,09:50,0.591,0.894,0.566,1.097,0.771,0.359,0.624,0.586,�k�k��,3.9,��
2021/11/07,10:00,0.592,0.896,0.566,1.096,0.769,0.359,0.622,0.588,�k�k��,3.5,��
2021/11/07,10:10,0.592,0.895,0.566,1.095,0.768,0.358,0.623,0.588,�k�k��,4.4,��
2021/11/07,10:20,0.592,0.894,0.565,1.097,0.769,0.357,0.624,0.587,�k�k��,4.9,��
2021/11/07,10:30,0.593,0.893,0.562,1.095,0.768,0.356,0.624,0.587,�k�k��,4.5,��
2021/11/07,10:40,0.594,0.895,0.563,1.096,0.769,0.356,0.624,0.587,�k�k��,5.6,��
2021/11/07,10:50,0.592,0.896,0.565,1.096,0.769,0.357,0.624,0.586,�k�k��,5.6,��
2021/11/07,11:00,0.593,0.895,0.564,1.097,0.770,0.358,0.625,0.588,�k�k��,4.4,��
2021/11/07,11:10,0.594,0.895,0.564,1.095,0.766,0.357,0.624,0.587,�k�k��,4.4,��
2021/11/07,11:20,0.593,0.894,0.564,1.098,0.771,0.358,0.623,0.586,�k�k��,4.8,��
2021/11/07,11:30,0.592,0.896,0.565,1.096,0.769,0.357,0.624,0.587,�k�k��,5.5,��
2021/11/07,11:40,0.594,0.894,0.564,1.095,0.769,0.356,0.624,0.587,�k�k��,5.7,��
2021/11/07,11:50,0.593,0.893,0.565,1.096,0.770,0.358,0.625,0.588,�k�k��,6.0,��
2021/11/07,12:00,0.594,0.896,0.564,1.096,0.770,0.358,0.624,0.588,�k�k��,6.3,��
2021/11/07,12:10,0.595,0.895,0.564,1.096,0.771,0.359,0.624,0.586,�k�k��,5.7,��
2021/11/07,12:20,0.593,0.896,0.565,1.095,0.771,0.359,0.624,0.587,�k�k��,5.5,��
2021/11/07,12:30,0.595,0.895,0.563,1.096,0.771,0.358,0.625,0.585,�k�k��,5.6,��
2021/11/07,12:40,0.594,0.896,0.564,1.096,0.772,0.359,0.625,0.584,�k�k��,5.2,��
2021/11/07,12:50,0.594,0.895,0.564,1.097,0.771,0.359,0.624,0.584,�k�k��,4.9,��
2021/11/07,13:00,0.596,0.896,0.565,1.095,0.770,0.358,0.624,0.585,�k�k��,5.6,��
2021/11/07,13:10,0.595,0.894,0.565,1.095,0.770,0.359,0.627,0.584,�k�k��,5.6,��
2021/11/07,13:20,0.594,0.894,0.563,1.097,0.770,0.357,0.624,0.584,�k�k��,4.8,��
2021/11/07,13:30,0.593,0.895,0.564,1.095,0.772,0.357,0.623,0.586,�k��,4.5,��
2021/11/07,13:40,0.594,0.895,0.564,1.097,0.771,0.357,0.625,0.585,�k��,4.0,��
2021/11/07,13:50,0.595,0.896,0.563,1.097,0.769,0.357,0.625,0.584,�k��,3.9,��
2021/11/07,14:00,0.595,0.897,0.564,1.099,0.771,0.358,0.624,0.585,�k��,3.1,��
2021/11/07,14:10,0.594,0.895,0.563,1.096,0.771,0.356,0.624,0.584,�k�k��,3.3,��
2021/11/07,14:20,0.593,0.895,0.566,1.097,0.770,0.358,0.625,0.585,�k�k��,2.8,��
2021/11/07,14:30,0.593,0.894,0.565,1.096,0.771,0.357,0.625,0.585,�k�k��,2.8,��
2021/11/07,14:40,0.593,0.896,0.563,1.097,0.772,0.358,0.625,0.585,�k��,2.8,��
2021/11/07,14:50,0.593,0.898,0.564,1.098,0.769,0.357,0.624,0.586,�k��,2.9,��
2021/11/07,15:00,0.595,0.895,0.564,1.097,0.771,0.359,0.625,0.583,�k��,3.1,��
2021/11/07,15:10,0.593,0.894,0.564,1.096,0.771,0.358,0.626,0.585,���k��,2.3,��
2021/11/07,15:20,0.593,0.895,0.564,1.097,0.770,0.359,0.627,0.585,�k��,2.3,��
2021/11/07,15:30,0.595,0.894,0.565,1.094,0.768,0.358,0.625,0.585,�k��,1.9,��
2021/11/07,15:40,0.592,0.897,0.564,1.098,0.771,0.359,0.627,0.586,�k�k��,1.7,��
2021/11/07,15:50,0.594,0.897,0.567,1.097,0.770,0.360,0.625,0.587,�k�k��,1.4,��
2021/11/07,16:00,0.593,0.897,0.567,1.098,0.770,0.359,0.627,0.587,�k�k��,1.4,��
2021/11/07,16:10,0.595,0.899,0.566,1.095,0.769,0.359,0.625,0.588,�k,1.5,��
2021/11/07,16:20,0.593,0.900,0.567,1.096,0.770,0.359,0.626,0.587,�k,1.5,��
2021/11/07,16:30,0.593,0.896,0.567,1.097,0.768,0.358,0.625,0.587,�k�k��,1.5,��
2021/11/07,16:40,0.593,0.896,0.565,1.096,0.771,0.359,0.627,0.587,�k�k��,2.3,��
2021/11/07,16:50,0.591,0.897,0.565,1.096,0.772,0.358,0.625,0.586,�k�k��,2.3,��
2021/11/07,17:00,0.593,0.898,0.564,1.097,0.773,0.359,0.625,0.587,�k�k��,2.3,��
2021/11/07,17:10,0.595,0.898,0.566,1.096,0.773,0.359,0.626,0.588,�k,2.6,��
2021/11/07,17:20,0.596,0.898,0.565,1.096,0.771,0.358,0.625,0.586,�k�k��,1.5,��
2021/11/07,17:30,0.595,0.894,0.565,1.096,0.771,0.358,0.626,0.586,�k�k��,1.2,��
2021/11/07,17:40,0.595,0.897,0.564,1.097,0.771,0.357,0.624,0.586,�k�k��,2.2,��
2021/11/07,17:50,0.593,0.897,0.566,1.095,0.772,0.359,0.624,0.586,�k��,1.5,��
2021/11/07,18:00,0.593,0.898,0.565,1.097,0.771,0.359,0.625,0.588,�k�k��,1.4,��
2021/11/07,18:10,0.594,0.897,0.566,1.097,0.773,0.359,0.626,0.586,�k��,1.5,��
2021/11/07,18:20,0.595,0.897,0.564,1.097,0.771,0.357,0.625,0.587,���k��,1.7,��
2021/11/07,18:30,0.596,0.898,0.565,1.097,0.772,0.359,0.625,0.587,���k��,1.4,��
2021/11/07,18:40,0.594,0.896,0.566,1.096,0.772,0.358,0.625,0.587,���k��,1.5,��
2021/11/07,18:50,0.595,0.898,0.566,1.095,0.771,0.357,0.625,0.586,���k��,1.9,��
2021/11/07,19:00,0.593,0.896,0.565,1.095,0.772,0.358,0.626,0.586,���k��,2.3,��
2021/11/07,19:10,0.592,0.895,0.566,1.095,0.771,0.358,0.624,0.587,�k��,2.9,��
2021/11/07,19:20,0.594,0.896,0.563,1.095,0.769,0.358,0.625,0.585,�k��,2.6,��
2021/11/07,19:30,0.595,0.896,0.566,1.099,0.771,0.358,0.624,0.586,���k��,2.3,��
2021/11/07,19:40,0.595,0.896,0.564,1.095,0.772,0.358,0.625,0.587,���k��,2.3,��
2021/11/07,19:50,0.594,0.896,0.566,1.098,0.772,0.358,0.624,0.586,���k��,1.5,��
2021/11/07,20:00,0.595,0.895,0.565,1.095,0.770,0.359,0.625,0.587,��,1.4,��
2021/11/07,20:10,0.593,0.896,0.565,1.097,0.772,0.358,0.624,0.586,�k��,1.5,��
2021/11/07,20:20,0.595,0.894,0.565,1.095,0.773,0.358,0.626,0.585,�k�k��,1.1,��
2021/11/07,20:30,0.594,0.896,0.566,1.096,0.771,0.358,0.625,0.587,�k��,2.3,��
2021/11/07,20:40,0.593,0.895,0.565,1.097,0.770,0.358,0.625,0.588,�k��,2.8,��
2021/11/07,20:50,0.594,0.894,0.564,1.095,0.770,0.357,0.624,0.587,�k��,2.9,��
2021/11/07,21:00,0.594,0.894,0.565,1.097,0.771,0.357,0.625,0.587,�k��,3.3,��
2021/11/07,21:10,0.593,0.895,0.566,1.097,0.769,0.357,0.624,0.586,�k��,3.2,��
2021/11/07,21:20,0.593,0.896,0.565,1.097,0.771,0.357,0.625,0.586,�k��,3.3,��
2021/11/07,21:30,0.595,0.893,0.566,1.097,0.772,0.358,0.625,0.585,�k��,2.8,��
2021/11/07,21:40,0.593,0.895,0.565,1.094,0.771,0.358,0.623,0.587,�k��,2.6,��
2021/11/07,21:50,0.594,0.895,0.564,1.096,0.771,0.357,0.625,0.586,�k��,2.6,��
2021/11/07,22:00,0.595,0.895,0.565,1.096,0.772,0.359,0.624,0.586,�k��,2.6,��
2021/11/07,22:10,0.592,0.896,0.563,1.096,0.770,0.356,0.624,0.587,�k��,2.2,��
2021/11/07,22:20,0.592,0.895,0.564,1.097,0.769,0.356,0.624,0.586,���k��,2.3,��
2021/11/07,22:30,0.595,0.895,0.563,1.095,0.770,0.358,0.625,0.585,�k��,2.3,��
2021/11/07,22:40,0.593,0.895,0.565,1.097,0.772,0.357,0.625,0.587,�k��,1.9,��
2021/11/07,22:50,0.595,0.895,0.563,1.095,0.771,0.357,0.624,0.586,�k��,1.9,��
2021/11/07,23:00,0.592,0.895,0.566,1.095,0.771,0.359,0.626,0.586,�k��,1.7,��
2021/11/07,23:10,0.593,0.895,0.563,1.095,0.771,0.358,0.625,0.586,�k��,1.9,��
2021/11/07,23:20,0.593,0.895,0.566,1.095,0.771,0.357,0.624,0.585,�k��,2.3,��
2021/11/07,23:30,0.590,0.896,0.563,1.097,0.771,0.360,0.624,0.586,�k��,2.6,��
2021/11/07,23:40,0.595,0.894,0.564,1.098,0.770,0.359,0.624,0.586,�k��,2.5,��
2021/11/07,23:50,0.594,0.896,0.565,1.096,0.770,0.357,0.626,0.585,�k��,2.8,��
